Louisville, KY

12:30 PM EST on December 08, 2016 (GMT -0500)
Louisville International-Standiford

Weather History for KSDF - December, 2014

Change the Weather History Date:

Thursday, December 25, 2014

  Actual Average Record
Temperature  
Mean Temperature 40 °F 36 °F  
Max Temperature 46 °F 44 °F 68 °F (1893)
Min Temperature 34 °F 28 °F -7 °F (1983)
Degree Days  
Heating Degree Days 25 29  
Month to date heating degree days 578 664  
Since 1 July heating degree days 1464 1399  
Cooling Degree Days 0 0  
Month to date cooling degree days 0 0  
Year to date cooling degree days 1626 1613  
Moisture  
Dew Point 33 °F    
Average Humidity 72    
Maximum Humidity 85    
Minimum Humidity 58    
Precipitation  
Precipitation T in 0.13 in 2.09 in (1987)
Month to date precipitation 3.29 3.12  
Year to date precipitation 42.99 44.20  
Snow  
Snow 0.00 in 0.10 in 4.50 in (1890)
Month to date snowfall T 1.9  
Since 1 July snowfall 3.7 2.1  
Snow Depth 0.00 in    
Sea Level Pressure  
Sea Level Pressure 30.07 in    
Wind  
Wind Speed 10 mph (SW)    
Max Wind Speed 22 mph    
Max Gust Speed 29 mph    
Visibility 10 miles    
Events Rain    
T = Trace of Precipitation, MM = Missing Value Source: NWS Daily Summary

Daily Weather History Graph

Daily Weather History Graph

Search for Another Location

Airport or City:

Trip Planner

Search our weather history database for the weather conditions in past years. The results will help you decide how hot, cold, wet, or windy it might be!

Date:

Astronomy

Dec. 25, 2014 Rise Set
Actual Time 7:57 AM EST 5:28 PM EST
Civil Twilight 7:28 AM EST 5:58 PM EST
Nautical Twilight 6:54 AM EST 6:31 PM EST
Astronomical Twilight 6:22 AM EST 7:03 PM EST
Moon 10:33 AM EST (12/25) 9:58 PM EST (12/25)
Length of Visible Light 10h 30m
Length of Day
9h 31m
Waxing Crescent, 17% of the Moon is Illuminated
Dec 25
Waxing Crescent
Dec 28
First Quarter
Jan 4
Full
Jan 13
Last Quarter
Jan 20
New

Hourly Weather History & Observations

Time (EST) Temp. Windchill Dew Point Humidity Pressure Visibility Wind Dir Wind Speed Gust Speed Precip Events Conditions
12:13 AM 41.0 °F 34.3 °F 36.0 °F 82% 29.81 in 10.0 mi WSW 11.5 mph - N/A   Overcast
12:25 AM 41.0 °F 33.1 °F 35.1 °F 79% 29.82 in 10.0 mi WSW 15.0 mph - N/A   Overcast
12:56 AM 41.0 °F 32.8 °F 34.0 °F 76% 29.83 in 10.0 mi West 16.1 mph - N/A   Mostly Cloudy
1:30 AM 39.9 °F 31.4 °F 34.0 °F 79% 29.83 in 10.0 mi WSW 16.1 mph - 0.00 in Rain Light Rain
1:56 AM 39.9 °F 32.9 °F 34.0 °F 79% 29.86 in 10.0 mi WSW 11.5 mph - 0.00 in   Mostly Cloudy
2:56 AM 39.9 °F 32.9 °F 34.0 °F 79% 29.91 in 10.0 mi WSW 11.5 mph - N/A   Overcast
3:27 AM 39.9 °F 33.4 °F 35.1 °F 83% 29.92 in 10.0 mi WSW 10.4 mph - N/A   Overcast
3:56 AM 39.9 °F 32.1 °F 35.1 °F 83% 29.94 in 10.0 mi WSW 13.8 mph - N/A   Overcast
4:56 AM 39.0 °F 30.6 °F 34.0 °F 82% 29.97 in 9.0 mi West 15.0 mph - 0.00 in   Light Drizzle
5:56 AM 39.0 °F 30.3 °F 32.0 °F 76% 30.00 in 10.0 mi West 16.1 mph 23.0 mph 0.00 in   Overcast
6:56 AM 39.0 °F 31.0 °F 32.0 °F 76% 30.04 in 10.0 mi West 13.8 mph - 0.00 in   Light Drizzle
7:51 AM 39.2 °F 33.6 °F 32.0 °F 75% 30.06 in 10.0 mi WSW 8.1 mph - 0.00 in   Light Drizzle
7:56 AM 39.0 °F 33.4 °F 32.0 °F 76% 30.07 in 10.0 mi WSW 8.1 mph - 0.00 in   Overcast
8:56 AM 39.9 °F 33.4 °F 33.1 °F 77% 30.10 in 10.0 mi SSW 10.4 mph - N/A   Overcast
9:47 AM 39.9 °F 35.1 °F 34.0 °F 79% 30.13 in 10.0 mi WSW 6.9 mph - 0.00 in Rain Light Rain
9:56 AM 39.9 °F 33.4 °F 34.0 °F 79% 30.14 in 10.0 mi SW 10.4 mph - 0.00 in Rain Light Rain
10:02 AM 39.9 °F 33.9 °F 33.1 °F 77% 30.13 in 10.0 mi SW 9.2 mph - 0.00 in   Overcast
10:56 AM 42.1 °F 36.1 °F 32.0 °F 67% 30.18 in 10.0 mi SW 10.4 mph - 0.00 in   Overcast
11:56 AM 43.0 °F 36.8 °F 33.1 °F 68% 30.17 in 10.0 mi SW 11.5 mph - N/A   Overcast
12:22 PM 43.0 °F 36.8 °F 32.0 °F 65% 30.16 in 10.0 mi SW 11.5 mph - N/A   Overcast
12:56 PM 43.0 °F 36.8 °F 32.0 °F 65% 30.15 in 10.0 mi SSW 11.5 mph - N/A   Overcast
1:23 PM 44.1 °F 38.1 °F 33.1 °F 65% 30.13 in 10.0 mi South 11.5 mph - N/A   Overcast
1:56 PM 44.1 °F 38.6 °F 32.0 °F 63% 30.14 in 10.0 mi SSW 10.4 mph - N/A   Mostly Cloudy
2:56 PM 45.0 °F 39.3 °F 32.0 °F 60% 30.15 in 10.0 mi SSW 11.5 mph - N/A   Mostly Cloudy
3:56 PM 46.0 °F 41.0 °F 32.0 °F 58% 30.16 in 10.0 mi South 10.4 mph - N/A   Mostly Cloudy
4:56 PM 45.0 °F 41.2 °F 32.0 °F 60% 30.16 in 10.0 mi South 6.9 mph - N/A   Partly Cloudy
5:56 PM 43.0 °F 38.2 °F 33.1 °F 68% 30.19 in 10.0 mi South 8.1 mph - N/A   Partly Cloudy
6:56 PM 42.1 °F 36.6 °F 32.0 °F 67% 30.20 in 10.0 mi SSE 9.2 mph - N/A   Clear
7:56 PM 39.0 °F 34.0 °F 32.0 °F 76% 30.20 in 10.0 mi SSE 6.9 mph - N/A   Clear
8:56 PM 37.0 °F 32.4 °F 32.0 °F 82% 30.19 in 10.0 mi SSE 5.8 mph - N/A   Clear
9:56 PM 36.0 °F 32.1 °F 30.9 °F 82% 30.19 in 10.0 mi SE 4.6 mph - N/A   Clear
10:56 PM 35.1 °F 31.0 °F 30.9 °F 85% 30.19 in 10.0 mi SSE 4.6 mph - N/A   Clear
11:56 PM 35.1 °F 31.0 °F 30.9 °F 85% 30.20 in 10.0 mi SE 4.6 mph - N/A   Clear